ICEYE-X64

导读

ICEYE-X64是芬兰ICEYE公司研制合成孔径雷达卫星,于2026年1月11日发射入轨,是公司卫星星座的新增成员。该卫星搭载先进SAR载荷,可不受昼夜、天气影响,实现最高0.5米高分辨率成像,支持灾害监测、海事监控等任务,将为全球用户提供近实时地理空间情报服务,强化星座持续观测能力。

Basic Information
目录编号:
67373
目录名称:
ICEYE-X64
国际标识:
2026-004L
轨道中心:
EARTH
卫星名称:
ICEYE-X64
卫星全名:
ICEYE-X64
卫星状态:
在轨 (已飞行237 天)
发射日期:
2026-01-11 UTC
国别 :
荷兰 (NL)
星等 :
--
Orbit Information
数据来源 国际轨道数据 AOE轨道数据
星历时间 2026-09-05T01:48:53+0800
22小时前
查看轨道信息
2026-09-01T00:00:00+0800
5天前
查看轨道信息
半长轴 6982.136km 6982.127km
偏心率 0.0004726 0.0004479
轨道倾角 97.807° 97.807°
近地点辐角 225.003° 240.635°
升交点赤经 245.064° 241.053°
平近点角 135.081° 259.771°
近地点 600.699km 600.862km
远地点 607.299km 607.118km
周期 96.770分钟 96.770分钟
每日圈数 14.880597 14.880626
Detailed Information
使用方式:
暂无
2D Orbit Map
3D Orbit Map
Orbit Altitude Analysis Chart
Orbit Inclination Analysis Chart
Orbit Comprehensive Analysis Chart
View Comprehensive Chart